RA73520 BIAR-EGLC

Flight info

Callsign RA73520
Flight time 2h 36m
Altitude 37000
Route M078F370 AKI DCT RATSU/N0451F370 DCT STN DCT GOW/N0398F250 L612 DCS N864 SUBUK DCT NOKIN N862 RISLA L15 HON
Aircraft B737/M-SDE2E3FGHIRWXY/LB1

Departure

Time 2026-05-06 07:11
Airport Akureyri International Airport (BIAR)

Arrival

Time 2026-05-06 09:48
Airport London City Airport (EGLC)
Time Latitude Longitude Altitude Speed Heading
2026-05-06 06:53 65.65489 -18.07488 20 ft 0 kts 354°
2026-05-06 07:01 65.65490 -18.07489 20 ft 2 kts 355°
2026-05-06 07:01 65.65501 -18.07476 20 ft 3 kts 51°
2026-05-06 07:01 65.65498 -18.07444 21 ft 1 kts 102°
2026-05-06 07:01 65.65488 -18.07415 22 ft 3 kts 142°
2026-05-06 07:02 65.65478 -18.07383 20 ft 3 kts 108°
2026-05-06 07:02 65.65478 -18.07356 21 ft 0 kts 86°
2026-05-06 07:05 65.65479 -18.07342 20 ft 2 kts 86°
2026-05-06 07:06 65.65480 -18.07287 20 ft 4 kts 85°
2026-05-06 07:06 65.65481 -18.07203 20 ft 5 kts 102°
2026-05-06 07:06 65.65451 -18.07166 20 ft 5 kts 173°
2026-05-06 07:06 65.65414 -18.07157 20 ft 6 kts 175°
2026-05-06 07:07 65.65356 -18.07147 20 ft 10 kts 176°
2026-05-06 07:07 65.65271 -18.07131 20 ft 14 kts 175°
2026-05-06 07:07 65.65162 -18.07110 21 ft 18 kts 175°
2026-05-06 07:07 65.65030 -18.07086 21 ft 20 kts 175°
2026-05-06 07:08 65.64890 -18.07059 21 ft 20 kts 176°
2026-05-06 07:08 65.64754 -18.07034 21 ft 19 kts 175°
2026-05-06 07:08 65.64635 -18.07011 23 ft 13 kts 175°
2026-05-06 07:08 65.64565 -18.06998 21 ft 8 kts 175°
2026-05-06 07:09 65.64525 -18.06997 22 ft 4 kts 191°
2026-05-06 07:09 65.64498 -18.07028 21 ft 4 kts 201°
2026-05-06 07:09 65.64469 -18.07018 21 ft 4 kts 143°
2026-05-06 07:09 65.64467 -18.06952 21 ft 4 kts 63°
2026-05-06 07:10 65.64493 -18.06936 21 ft 4 kts 347°
2026-05-06 07:10 65.64517 -18.06972 22 ft 4 kts 325°
2026-05-06 07:10 65.64543 -18.06993 21 ft 4 kts 354°
2026-05-06 07:10 65.64578 -18.06999 21 ft 12 kts 355°
2026-05-06 07:11 65.64922 -18.07064 21 ft 88 kts 355°
2026-05-06 07:11 65.65761 -18.07223 38 ft 149 kts 354°
2026-05-06 07:11 65.66799 -18.07400 766 ft 153 kts 354°
2026-05-06 07:11 65.67872 -18.07633 1432 ft 156 kts 354°
2026-05-06 07:12 65.68935 -18.08045 2172 ft 158 kts 343°
2026-05-06 07:12 65.69990 -18.08785 2987 ft 156 kts 346°
2026-05-06 07:12 65.71096 -18.09521 3377 ft 179 kts 347°
2026-05-06 07:12 65.72380 -18.10376 3656 ft 201 kts 346°
2026-05-06 07:13 65.73777 -18.11326 3963 ft 217 kts 346°
2026-05-06 07:13 65.75299 -18.12358 4126 ft 243 kts 346°
2026-05-06 07:13 65.76948 -18.13476 4819 ft 247 kts 346°
2026-05-06 07:13 65.78609 -18.14631 5592 ft 249 kts 346°
2026-05-06 07:14 65.80295 -18.15796 6328 ft 254 kts 346°
2026-05-06 07:14 65.82002 -18.16964 7158 ft 256 kts 346°
2026-05-06 07:14 65.83714 -18.18143 8168 ft 255 kts 346°
2026-05-06 07:14 65.85437 -18.19327 9058 ft 260 kts 349°
2026-05-06 07:15 65.87231 -18.19302 9990 ft 261 kts 15°
2026-05-06 07:15 65.88837 -18.17264 10899 ft 264 kts 39°
2026-05-06 07:15 65.89991 -18.13716 11687 ft 273 kts 63°
2026-05-06 07:15 65.90406 -18.09144 12528 ft 282 kts 89°
2026-05-06 07:16 65.89921 -18.04447 13397 ft 292 kts 116°
2026-05-06 07:16 65.88632 -18.00595 14342 ft 298 kts 140°
2026-05-06 07:16 65.86740 -17.98431 15141 ft 308 kts 167°
2026-05-06 07:16 65.84565 -17.98326 15896 ft 318 kts 184°
2026-05-06 07:17 65.82330 -17.98963 16461 ft 334 kts 184°
2026-05-06 07:17 65.79940 -17.99562 16782 ft 354 kts 184°
2026-05-06 07:17 65.77464 -17.99868 17491 ft 360 kts 172°
2026-05-06 07:17 65.75095 -17.98150 18368 ft 356 kts 149°
2026-05-06 07:18 65.73084 -17.94680 19224 ft 354 kts 137°
2026-05-06 07:18 65.71193 -17.90797 19995 ft 358 kts 136°
2026-05-06 07:18 65.69300 -17.86794 20744 ft 363 kts 135°
2026-05-06 07:18 65.67395 -17.82749 21480 ft 366 kts 135°
2026-05-06 07:19 65.65462 -17.78667 22207 ft 370 kts 135°
2026-05-06 07:19 65.63502 -17.74558 22950 ft 375 kts 135°
2026-05-06 07:19 65.61517 -17.70429 23680 ft 379 kts 135°
2026-05-06 07:19 65.59504 -17.66262 24301 ft 383 kts 136°
2026-05-06 07:20 65.57465 -17.62065 24890 ft 387 kts 136°
2026-05-06 07:20 65.55403 -17.57836 25477 ft 391 kts 136°
2026-05-06 07:20 65.53316 -17.53569 26066 ft 395 kts 136°
2026-05-06 07:20 65.51210 -17.49275 26638 ft 398 kts 136°
2026-05-06 07:21 65.49081 -17.44945 27175 ft 403 kts 136°
2026-05-06 07:21 65.46929 -17.40576 27695 ft 407 kts 136°
2026-05-06 07:21 65.44752 -17.36168 28205 ft 411 kts 136°
2026-05-06 07:21 65.42555 -17.31731 28686 ft 414 kts 136°
2026-05-06 07:22 65.40339 -17.27265 29154 ft 418 kts 136°
2026-05-06 07:22 65.38098 -17.22758 29584 ft 422 kts 136°
2026-05-06 07:22 65.35837 -17.18221 30045 ft 426 kts 136°
2026-05-06 07:22 65.33554 -17.13651 30454 ft 429 kts 136°
2026-05-06 07:23 65.31252 -17.09055 30750 ft 433 kts 137°
2026-05-06 07:23 65.28927 -17.04422 31053 ft 437 kts 137°
2026-05-06 07:23 65.26575 -16.99748 31325 ft 442 kts 137°
2026-05-06 07:23 65.24232 -16.95102 31585 ft 446 kts 138°
2026-05-06 07:24 65.21838 -16.90368 31870 ft 449 kts 138°
2026-05-06 07:24 65.19427 -16.85613 32134 ft 452 kts 138°
2026-05-06 07:24 65.16996 -16.80827 32392 ft 455 kts 138°
2026-05-06 07:24 65.14545 -16.76016 32557 ft 459 kts 138°
2026-05-06 07:25 65.12071 -16.71170 32887 ft 462 kts 139°
2026-05-06 07:25 65.09581 -16.66306 33161 ft 464 kts 139°
2026-05-06 07:25 65.07078 -16.61428 33433 ft 467 kts 139°
2026-05-06 07:25 65.04565 -16.56545 33759 ft 467 kts 139°
2026-05-06 07:26 65.02055 -16.51679 34092 ft 468 kts 139°
2026-05-06 07:26 64.99530 -16.46794 34352 ft 469 kts 140°
2026-05-06 07:26 64.97001 -16.41916 34594 ft 470 kts 140°
2026-05-06 07:26 64.94466 -16.37038 34859 ft 470 kts 140°
2026-05-06 07:27 64.91930 -16.32169 35097 ft 471 kts 140°
2026-05-06 07:27 64.89373 -16.27272 35227 ft 475 kts 140°
2026-05-06 07:27 64.86812 -16.22380 35473 ft 475 kts 140°
2026-05-06 07:27 64.84250 -16.17500 35826 ft 472 kts 140°
2026-05-06 07:28 64.81697 -16.12649 36011 ft 474 kts 140°
2026-05-06 07:28 64.79126 -16.07775 36138 ft 477 kts 140°
2026-05-06 07:28 64.73972 -15.98041 36731 ft 474 kts 140°
2026-05-06 07:29 64.71396 -15.93195 36855 ft 477 kts 141°
2026-05-06 07:29 64.68805 -15.88334 37049 ft 478 kts 140°
2026-05-06 07:29 64.63555 -15.78518 37138 ft 487 kts 140°
2026-05-06 07:30 64.60903 -15.73578 37290 ft 489 kts 140°
2026-05-06 07:30 64.58246 -15.68641 37270 ft 487 kts 141°
2026-05-06 07:30 64.53005 -15.58949 37236 ft 480 kts 141°
2026-05-06 07:31 64.47738 -15.49250 37242 ft 486 kts 141°
2026-05-06 07:31 64.42474 -15.39608 37210 ft 477 kts 141°
2026-05-06 07:32 64.37295 -15.30170 37230 ft 473 kts 141°
2026-05-06 07:32 64.32115 -15.20775 37226 ft 474 kts 141°
2026-05-06 07:33 64.26958 -15.11467 37223 ft 474 kts 142°
2026-05-06 07:33 64.21751 -15.02117 37204 ft 475 kts 142°
2026-05-06 07:34 64.16499 -14.92730 37198 ft 475 kts 142°
2026-05-06 07:34 64.11288 -14.83463 37213 ft 481 kts 142°
2026-05-06 07:35 64.05950 -14.74016 37223 ft 489 kts 142°
2026-05-06 07:35 64.00575 -14.64551 37187 ft 485 kts 142°
2026-05-06 07:36 63.95274 -14.55264 37168 ft 480 kts 142°
2026-05-06 07:36 63.89918 -14.45927 37203 ft 490 kts 142°
2026-05-06 07:37 63.84482 -14.36495 37193 ft 492 kts 142°
2026-05-06 07:37 63.79062 -14.27139 37169 ft 487 kts 142°
2026-05-06 07:38 63.73753 -14.18019 37172 ft 473 kts 143°
2026-05-06 07:38 63.68499 -14.09037 37198 ft 479 kts 143°
2026-05-06 07:39 63.63145 -13.99927 37192 ft 483 kts 143°
2026-05-06 07:39 63.57782 -13.90849 37151 ft 482 kts 143°
2026-05-06 07:40 63.52438 -13.81843 37159 ft 481 kts 143°
2026-05-06 07:40 63.47081 -13.72861 37137 ft 480 kts 143°
2026-05-06 07:41 63.41697 -13.63876 37156 ft 486 kts 143°
2026-05-06 07:41 63.36283 -13.54884 37150 ft 485 kts 144°
2026-05-06 07:42 63.30864 -13.45927 37133 ft 485 kts 144°
2026-05-06 07:42 63.25433 -13.36993 37142 ft 486 kts 144°
2026-05-06 07:43 63.19972 -13.28053 37139 ft 489 kts 144°
2026-05-06 07:43 63.15416 -13.20627 37116 ft 488 kts 144°
2026-05-06 07:44 63.10001 -13.11839 37119 ft 481 kts 145°
2026-05-06 07:44 63.03688 -13.01648 37125 ft 488 kts 144°
2026-05-06 07:45 62.99120 -12.94307 37111 ft 483 kts 144°
2026-05-06 07:45 62.93705 -12.85643 37104 ft 479 kts 144°
2026-05-06 07:46 62.88314 -12.77057 37125 ft 479 kts 144°
2026-05-06 07:46 62.82870 -12.68429 37111 ft 486 kts 145°
2026-05-06 07:47 62.77375 -12.59759 37095 ft 484 kts 145°
2026-05-06 07:47 62.71961 -12.51256 37099 ft 481 kts 145°
2026-05-06 07:48 62.66485 -12.42696 37085 ft 481 kts 145°
2026-05-06 07:48 62.61050 -12.34240 37088 ft 481 kts 146°
2026-05-06 07:49 62.55648 -12.25874 37077 ft 480 kts 146°
2026-05-06 07:49 62.50214 -12.17496 37081 ft 479 kts 146°
2026-05-06 07:50 62.44781 -12.09158 37076 ft 479 kts 146°
2026-05-06 07:50 62.39344 -12.00853 37076 ft 478 kts 146°
2026-05-06 07:51 62.33908 -11.92585 37074 ft 478 kts 146°
2026-05-06 07:51 62.28474 -11.84358 37058 ft 478 kts 146°
2026-05-06 07:52 62.23035 -11.76160 37066 ft 478 kts 146°
2026-05-06 07:52 62.17578 -11.67973 37070 ft 479 kts 146°
2026-05-06 07:53 62.12112 -11.59809 37081 ft 480 kts 146°
2026-05-06 07:53 62.06633 -11.51661 37071 ft 480 kts 146°
2026-05-06 07:54 62.01143 -11.43533 37058 ft 481 kts 147°
2026-05-06 07:54 61.95642 -11.35427 37071 ft 481 kts 147°
2026-05-06 07:55 61.90135 -11.27347 37065 ft 481 kts 147°
2026-05-06 07:55 61.84620 -11.19292 37068 ft 482 kts 147°
2026-05-06 07:56 61.79099 -11.11264 37064 ft 482 kts 147°
2026-05-06 07:56 61.73572 -11.03262 37059 ft 482 kts 147°
2026-05-06 07:57 61.68036 -10.95282 37065 ft 482 kts 147°
2026-05-06 07:57 61.62494 -10.87330 37063 ft 482 kts 147°
2026-05-06 07:58 61.56946 -10.79404 37060 ft 482 kts 147°
2026-05-06 07:58 61.51433 -10.71562 37062 ft 482 kts 148°
2026-05-06 07:59 61.45881 -10.63699 37059 ft 482 kts 148°
2026-05-06 07:59 61.40320 -10.55857 37079 ft 482 kts 148°
2026-05-06 08:00 61.34748 -10.48035 37065 ft 483 kts 148°
2026-05-06 08:00 61.29175 -10.40246 37063 ft 483 kts 148°
2026-05-06 08:01 61.23598 -10.32483 37062 ft 483 kts 148°
2026-05-06 08:01 61.18009 -10.24739 37059 ft 482 kts 148°
2026-05-06 08:02 61.12426 -10.17033 37060 ft 482 kts 148°
2026-05-06 08:02 61.06848 -10.09356 37059 ft 482 kts 148°
2026-05-06 08:03 61.01265 -10.01712 37059 ft 481 kts 148°
2026-05-06 08:03 60.95751 -9.93881 37037 ft 482 kts 146°
2026-05-06 08:04 60.90380 -9.85653 37058 ft 482 kts 145°
2026-05-06 08:04 60.85005 -9.77426 37066 ft 482 kts 145°
2026-05-06 08:05 60.79604 -9.69291 37060 ft 482 kts 146°
2026-05-06 08:05 60.74173 -9.61201 37058 ft 483 kts 146°
2026-05-06 08:06 60.68771 -9.53200 37037 ft 483 kts 146°
2026-05-06 08:06 60.63326 -9.45170 37056 ft 483 kts 146°
2026-05-06 08:07 60.57872 -9.37155 37062 ft 484 kts 146°
2026-05-06 08:07 60.52374 -9.29107 37059 ft 484 kts 146°
2026-05-06 08:08 60.46912 -9.21147 37061 ft 484 kts 146°
2026-05-06 08:08 60.41440 -9.13205 37039 ft 484 kts 147°
2026-05-06 08:09 60.35967 -9.05295 37056 ft 484 kts 147°
2026-05-06 08:09 60.30482 -8.97403 37064 ft 484 kts 147°
2026-05-06 08:10 60.24991 -8.89534 37061 ft 485 kts 147°
2026-05-06 08:11 60.13894 -8.73730 37063 ft 485 kts 148°
2026-05-06 08:11 60.08373 -8.65917 37082 ft 486 kts 147°
2026-05-06 08:12 60.02846 -8.58130 37061 ft 486 kts 147°
2026-05-06 08:12 59.97301 -8.50349 37067 ft 487 kts 147°
2026-05-06 08:13 59.91763 -8.42610 37056 ft 486 kts 148°
2026-05-06 08:13 59.86216 -8.34890 37052 ft 485 kts 148°
2026-05-06 08:14 59.80681 -8.27218 37056 ft 485 kts 148°
2026-05-06 08:14 59.75143 -8.19575 37064 ft 484 kts 148°
2026-05-06 08:15 59.69602 -8.11958 37060 ft 484 kts 148°
2026-05-06 08:15 59.64063 -8.04377 37069 ft 484 kts 148°
2026-05-06 08:16 59.58534 -7.96839 37055 ft 482 kts 149°
2026-05-06 08:16 59.53013 -7.89342 37062 ft 482 kts 149°
2026-05-06 08:17 59.47491 -7.81875 37063 ft 481 kts 149°
2026-05-06 08:17 59.41969 -7.74437 37075 ft 481 kts 149°
2026-05-06 08:18 59.36449 -7.67034 37029 ft 481 kts 149°
2026-05-06 08:18 59.30936 -7.59667 37052 ft 479 kts 149°
2026-05-06 08:19 59.25427 -7.52336 37071 ft 479 kts 149°
2026-05-06 08:19 59.19917 -7.45027 37069 ft 478 kts 149°
2026-05-06 08:20 59.14413 -7.37757 37067 ft 478 kts 149°
2026-05-06 08:20 59.08899 -7.30508 37056 ft 478 kts 149°
2026-05-06 08:21 59.03385 -7.23287 37066 ft 478 kts 149°
2026-05-06 08:21 58.97869 -7.16091 37068 ft 478 kts 149°
2026-05-06 08:22 58.92338 -7.08904 37072 ft 479 kts 149°
2026-05-06 08:22 58.86791 -7.01730 37071 ft 479 kts 149°
2026-05-06 08:23 58.81246 -6.94589 37062 ft 479 kts 149°
2026-05-06 08:23 58.75694 -6.87459 37065 ft 480 kts 149°
2026-05-06 08:24 58.71072 -6.81544 37075 ft 480 kts 149°
2026-05-06 08:24 58.65509 -6.74449 37073 ft 480 kts 149°
2026-05-06 08:25 58.59941 -6.67376 37075 ft 480 kts 149°
2026-05-06 08:25 58.54367 -6.60322 37073 ft 480 kts 149°
2026-05-06 08:26 58.48792 -6.53295 37076 ft 480 kts 150°
2026-05-06 08:26 58.43215 -6.46294 37076 ft 480 kts 150°
2026-05-06 08:27 58.37636 -6.39315 37079 ft 479 kts 150°
2026-05-06 08:27 58.32057 -6.32366 37039 ft 479 kts 150°
2026-05-06 08:28 58.26489 -6.25453 37069 ft 478 kts 150°
2026-05-06 08:28 58.20904 -6.18609 37085 ft 477 kts 153°
2026-05-06 08:29 58.14915 -6.13434 37081 ft 472 kts 161°
2026-05-06 08:29 58.08834 -6.08758 37079 ft 472 kts 161°
2026-05-06 08:30 58.02767 -6.04072 37070 ft 471 kts 161°
2026-05-06 08:30 57.96710 -5.99339 37073 ft 471 kts 161°
2026-05-06 08:31 57.90668 -5.94605 37082 ft 471 kts 161°
2026-05-06 08:31 57.84619 -5.89880 37079 ft 471 kts 161°
2026-05-06 08:32 57.78579 -5.85181 37047 ft 471 kts 161°
2026-05-06 08:32 57.72537 -5.80499 37069 ft 470 kts 161°
2026-05-06 08:33 57.66499 -5.75838 37080 ft 470 kts 161°
2026-05-06 08:33 57.60445 -5.71183 37080 ft 470 kts 161°
2026-05-06 08:34 57.51367 -5.64233 37053 ft 471 kts 161°
2026-05-06 08:35 57.45317 -5.59620 37072 ft 470 kts 161°
2026-05-06 08:35 57.39262 -5.55022 37083 ft 470 kts 161°
2026-05-06 08:36 57.33204 -5.50438 37083 ft 470 kts 161°
2026-05-06 08:36 57.27145 -5.45868 37084 ft 470 kts 161°
2026-05-06 08:37 57.21088 -5.41316 37074 ft 470 kts 161°
2026-05-06 08:37 57.15034 -5.36783 37075 ft 469 kts 161°
2026-05-06 08:38 57.08986 -5.32271 37091 ft 469 kts 161°
2026-05-06 08:38 57.02941 -5.27777 37099 ft 468 kts 161°
2026-05-06 08:39 56.96901 -5.23302 37078 ft 467 kts 161°
2026-05-06 08:39 56.90874 -5.18851 37076 ft 466 kts 161°
2026-05-06 08:40 56.84863 -5.14429 37086 ft 465 kts 161°
2026-05-06 08:40 56.78858 -5.10026 37093 ft 465 kts 161°
2026-05-06 08:41 56.72894 -5.05669 37069 ft 464 kts 161°
2026-05-06 08:41 56.66864 -5.01278 37087 ft 463 kts 161°
2026-05-06 08:42 56.60883 -4.96939 37086 ft 463 kts 161°
2026-05-06 08:42 56.54944 -4.92644 37080 ft 463 kts 161°
2026-05-06 08:43 56.48965 -4.88335 37093 ft 462 kts 161°
2026-05-06 08:43 56.42984 -4.84041 37086 ft 462 kts 161°
2026-05-06 08:44 56.37006 -4.79762 37099 ft 463 kts 161°
2026-05-06 08:44 56.31016 -4.75488 37090 ft 463 kts 161°
2026-05-06 08:45 56.25021 -4.71226 37087 ft 463 kts 161°
2026-05-06 08:45 56.19025 -4.66978 37089 ft 463 kts 161°
2026-05-06 08:46 56.12986 -4.62712 37085 ft 464 kts 161°
2026-05-06 08:46 56.07017 -4.58512 37094 ft 464 kts 161°
2026-05-06 08:47 56.01013 -4.54301 37101 ft 463 kts 161°
2026-05-06 08:47 55.95036 -4.50124 37109 ft 463 kts 161°
2026-05-06 08:48 55.89049 -4.45951 37096 ft 463 kts 161°
2026-05-06 08:48 55.83233 -4.41039 37104 ft 464 kts 153°
2026-05-06 08:49 55.77630 -4.35277 37101 ft 464 kts 153°
2026-05-06 08:49 55.72013 -4.29678 37094 ft 463 kts 154°
2026-05-06 08:50 55.66371 -4.24174 37089 ft 462 kts 154°
2026-05-06 08:50 55.60746 -4.18668 37090 ft 462 kts 153°
2026-05-06 08:51 55.55122 -4.13171 37097 ft 462 kts 154°
2026-05-06 08:51 55.49497 -4.07693 37096 ft 462 kts 154°
2026-05-06 08:52 55.43867 -4.02220 37075 ft 462 kts 154°
2026-05-06 08:52 55.38245 -3.96767 37090 ft 462 kts 154°
2026-05-06 08:53 55.32605 -3.91308 37090 ft 462 kts 153°
2026-05-06 08:53 55.26969 -3.85875 37092 ft 462 kts 154°
2026-05-06 08:54 55.21333 -3.80463 37093 ft 462 kts 154°
2026-05-06 08:54 55.15688 -3.75052 37086 ft 462 kts 154°
2026-05-06 08:55 55.10052 -3.69667 37089 ft 462 kts 154°
2026-05-06 08:55 55.04405 -3.64294 37090 ft 462 kts 154°
2026-05-06 08:56 54.98760 -3.58937 37084 ft 462 kts 154°
2026-05-06 08:56 54.93110 -3.53611 37076 ft 462 kts 154°
2026-05-06 08:57 54.87458 -3.48314 37080 ft 461 kts 154°
2026-05-06 08:57 54.81810 -3.43038 37077 ft 461 kts 154°
2026-05-06 08:58 54.76166 -3.37778 37079 ft 461 kts 154°
2026-05-06 08:58 54.70303 -3.33841 37065 ft 454 kts 171°
2026-05-06 08:59 54.64082 -3.32613 37074 ft 450 kts 178°
2026-05-06 08:59 54.57845 -3.31733 37077 ft 450 kts 178°
2026-05-06 09:00 54.51605 -3.30770 37074 ft 450 kts 177°
2026-05-06 09:00 54.45370 -3.29771 37076 ft 450 kts 177°
2026-05-06 09:01 54.39142 -3.28778 37070 ft 450 kts 178°
2026-05-06 09:01 54.32924 -3.27255 37080 ft 452 kts 172°
2026-05-06 09:02 54.26741 -3.25178 37074 ft 453 kts 172°
2026-05-06 09:02 54.20563 -3.23100 37074 ft 453 kts 172°
2026-05-06 09:03 54.14373 -3.21102 37070 ft 452 kts 172°
2026-05-06 09:03 54.08180 -3.19147 37074 ft 452 kts 172°
2026-05-06 09:04 54.01998 -3.17210 37077 ft 452 kts 172°
2026-05-06 09:04 53.95831 -3.15118 37062 ft 454 kts 165°
2026-05-06 09:05 53.90162 -3.10363 37068 ft 460 kts 147°
2026-05-06 09:05 53.84984 -3.04003 37071 ft 460 kts 146°
2026-05-06 09:06 53.79822 -2.97605 37068 ft 460 kts 146°
2026-05-06 09:06 53.74646 -2.91298 37077 ft 460 kts 147°
2026-05-06 09:07 53.70286 -2.86046 37057 ft 459 kts 147°
2026-05-06 09:07 53.65114 -2.79845 37067 ft 459 kts 147°
2026-05-06 09:08 53.59023 -2.72566 37067 ft 459 kts 147°
2026-05-06 09:08 53.54693 -2.67404 37068 ft 459 kts 147°
2026-05-06 09:09 53.49474 -2.61199 37073 ft 459 kts 147°
2026-05-06 09:09 53.44258 -2.55018 37067 ft 459 kts 147°
2026-05-06 09:10 53.39047 -2.48861 37072 ft 459 kts 147°
2026-05-06 09:10 53.33829 -2.42714 37076 ft 458 kts 147°
2026-05-06 09:11 53.28618 -2.36593 37078 ft 458 kts 147°
2026-05-06 09:11 53.23407 -2.30488 37075 ft 458 kts 147°
2026-05-06 09:12 53.18193 -2.24403 37066 ft 457 kts 147°
2026-05-06 09:12 53.12987 -2.18321 37065 ft 457 kts 147°
2026-05-06 09:13 53.07857 -2.12085 37062 ft 457 kts 146°
2026-05-06 09:13 53.02741 -2.05809 37055 ft 457 kts 146°
2026-05-06 09:14 52.97617 -1.99573 37032 ft 457 kts 146°
2026-05-06 09:14 52.92489 -1.93370 37042 ft 456 kts 146°
2026-05-06 09:15 52.87360 -1.87187 37044 ft 456 kts 146°
2026-05-06 09:15 52.82235 -1.81026 37044 ft 455 kts 146°
2026-05-06 09:16 52.77104 -1.74874 36981 ft 457 kts 146°
2026-05-06 09:16 52.74508 -1.71791 36365 ft 462 kts 148°
2026-05-06 09:16 52.71789 -1.69042 35767 ft 457 kts 153°
2026-05-06 09:16 52.68965 -1.66602 35052 ft 457 kts 156°
2026-05-06 09:17 52.66121 -1.64291 34354 ft 457 kts 156°
2026-05-06 09:17 52.63258 -1.61977 33476 ft 457 kts 156°
2026-05-06 09:17 52.60434 -1.59653 32921 ft 451 kts 155°
2026-05-06 09:17 52.57652 -1.57323 32338 ft 446 kts 155°
2026-05-06 09:18 52.54909 -1.54995 31840 ft 441 kts 155°
2026-05-06 09:18 52.52198 -1.52681 31306 ft 437 kts 155°
2026-05-06 09:18 52.49513 -1.50386 30811 ft 433 kts 154°
2026-05-06 09:18 52.46849 -1.48113 30311 ft 430 kts 154°
2026-05-06 09:19 52.44204 -1.45860 29752 ft 426 kts 154°
2026-05-06 09:19 52.41583 -1.43631 29197 ft 422 kts 154°
2026-05-06 09:19 52.38992 -1.41431 28639 ft 417 kts 154°
2026-05-06 09:19 52.36436 -1.39262 28117 ft 412 kts 154°
2026-05-06 09:20 52.33901 -1.37108 27591 ft 408 kts 154°
2026-05-06 09:20 52.31392 -1.34984 27066 ft 404 kts 154°
2026-05-06 09:20 52.29049 -1.32483 26529 ft 405 kts 137°
2026-05-06 09:20 52.27200 -1.29055 26079 ft 401 kts 130°
2026-05-06 09:21 52.25440 -1.25529 25558 ft 398 kts 130°
2026-05-06 09:21 52.23701 -1.22035 25059 ft 396 kts 130°
2026-05-06 09:21 52.21957 -1.18576 24563 ft 393 kts 131°
2026-05-06 09:21 52.20213 -1.15158 24075 ft 391 kts 131°
2026-05-06 09:22 52.18473 -1.11776 23580 ft 389 kts 131°
2026-05-06 09:22 52.16729 -1.08397 22993 ft 390 kts 131°
2026-05-06 09:22 52.14984 -1.05022 22517 ft 388 kts 131°
2026-05-06 09:22 52.13559 -1.01338 22090 ft 388 kts 111°
2026-05-06 09:23 52.12952 -0.97052 22023 ft 393 kts 95°
2026-05-06 09:23 52.12552 -0.92669 21948 ft 389 kts 107°
2026-05-06 09:23 52.11705 -0.88524 21659 ft 384 kts 110°
2026-05-06 09:23 52.10816 -0.84445 21168 ft 381 kts 110°
2026-05-06 09:24 52.09926 -0.80403 20589 ft 380 kts 110°
2026-05-06 09:24 52.09032 -0.76356 20012 ft 380 kts 110°
2026-05-06 09:24 52.08138 -0.72327 19513 ft 377 kts 110°
2026-05-06 09:24 52.07248 -0.68334 19062 ft 374 kts 110°
2026-05-06 09:25 52.06375 -0.64437 18637 ft 370 kts 110°
2026-05-06 09:25 52.05493 -0.60518 18101 ft 369 kts 110°
2026-05-06 09:25 52.04614 -0.56630 17518 ft 368 kts 110°
2026-05-06 09:25 52.03721 -0.52708 17079 ft 363 kts 110°
2026-05-06 09:26 52.02847 -0.48894 16647 ft 358 kts 110°
2026-05-06 09:26 52.01986 -0.45153 16100 ft 358 kts 110°
2026-05-06 09:26 52.01101 -0.41332 15521 ft 358 kts 110°
2026-05-06 09:26 52.00236 -0.37615 15191 ft 355 kts 110°
2026-05-06 09:27 51.99372 -0.33932 15064 ft 343 kts 110°
2026-05-06 09:27 51.98537 -0.30384 14988 ft 329 kts 110°
2026-05-06 09:27 51.97722 -0.26928 14983 ft 320 kts 110°
2026-05-06 09:27 51.96927 -0.23573 14990 ft 319 kts 110°
2026-05-06 09:28 51.96131 -0.20215 14717 ft 328 kts 111°
2026-05-06 09:28 51.95300 -0.16712 14292 ft 330 kts 110°
2026-05-06 09:28 51.94470 -0.13232 13803 ft 330 kts 110°
2026-05-06 09:28 51.93647 -0.09811 13280 ft 330 kts 110°
2026-05-06 09:29 51.92815 -0.06382 13033 ft 321 kts 110°
2026-05-06 09:29 51.92000 -0.03047 12986 ft 309 kts 110°
2026-05-06 09:29 51.91211 0.00174 12991 ft 306 kts 111°
2026-05-06 09:29 51.90423 0.03392 13003 ft 309 kts 111°
2026-05-06 09:30 51.89620 0.06670 13004 ft 317 kts 111°
2026-05-06 09:30 51.88821 0.09932 12997 ft 315 kts 111°
2026-05-06 09:30 51.88020 0.13206 12996 ft 311 kts 111°
2026-05-06 09:30 51.87228 0.16448 12981 ft 309 kts 110°
2026-05-06 09:31 51.86439 0.19670 12991 ft 308 kts 111°
2026-05-06 09:31 51.85630 0.22966 13003 ft 313 kts 111°
2026-05-06 09:31 51.84834 0.26209 12832 ft 317 kts 111°
2026-05-06 09:31 51.84021 0.29527 12434 ft 316 kts 111°
2026-05-06 09:32 51.83217 0.32795 12033 ft 310 kts 111°
2026-05-06 09:32 51.82419 0.35999 11645 ft 306 kts 111°
2026-05-06 09:32 51.81300 0.38892 11234 ft 306 kts 135°
2026-05-06 09:32 51.79543 0.40765 10866 ft 303 kts 160°
2026-05-06 09:33 51.77489 0.41359 10516 ft 301 kts 178°
2026-05-06 09:33 51.75402 0.41449 10158 ft 299 kts 180°
2026-05-06 09:33 51.73351 0.41479 9833 ft 290 kts 180°
2026-05-06 09:33 51.71379 0.41483 9550 ft 277 kts 181°
2026-05-06 09:34 51.69484 0.41481 9250 ft 268 kts 181°
2026-05-06 09:34 51.67651 0.41478 8967 ft 258 kts 181°
2026-05-06 09:34 51.65888 0.41473 8692 ft 251 kts 181°
2026-05-06 09:34 51.64111 0.41468 8431 ft 252 kts 181°
2026-05-06 09:35 51.62355 0.41466 8184 ft 254 kts 181°
2026-05-06 09:35 51.60589 0.41464 7940 ft 254 kts 181°
2026-05-06 09:35 51.58816 0.41462 7681 ft 255 kts 181°
2026-05-06 09:35 51.57042 0.41465 7430 ft 254 kts 181°
2026-05-06 09:36 51.55279 0.41472 7182 ft 254 kts 181°
2026-05-06 09:36 51.53517 0.41486 6929 ft 253 kts 181°
2026-05-06 09:36 51.51753 0.41503 6684 ft 252 kts 181°
2026-05-06 09:36 51.50004 0.41522 6437 ft 251 kts 181°
2026-05-06 09:37 51.48264 0.41541 6178 ft 250 kts 181°
2026-05-06 09:37 51.46527 0.41503 5783 ft 249 kts 190°
2026-05-06 09:37 51.44984 0.40421 5346 ft 240 kts 227°
2026-05-06 09:37 51.44058 0.38327 5034 ft 224 kts 251°
2026-05-06 09:38 51.43656 0.35991 4665 ft 213 kts 265°
2026-05-06 09:38 51.43395 0.33679 4367 ft 208 kts 264°
2026-05-06 09:38 51.43142 0.31419 4092 ft 204 kts 265°
2026-05-06 09:38 51.43014 0.29202 3803 ft 196 kts 279°
2026-05-06 09:39 51.43124 0.27060 3560 ft 193 kts 279°
2026-05-06 09:39 51.43208 0.24908 3304 ft 193 kts 278°
2026-05-06 09:39 51.43283 0.22769 3066 ft 192 kts 278°
2026-05-06 09:39 51.43356 0.20628 3028 ft 192 kts 277°
2026-05-06 09:40 51.43428 0.18488 2999 ft 192 kts 277°
2026-05-06 09:40 51.43500 0.16346 3013 ft 193 kts 277°
2026-05-06 09:40 51.43639 0.12076 2998 ft 191 kts 276°
2026-05-06 09:41 51.43704 0.09948 2991 ft 191 kts 276°
2026-05-06 09:41 51.43770 0.07826 2956 ft 193 kts 277°
2026-05-06 09:41 51.43841 0.05629 2688 ft 196 kts 277°
2026-05-06 09:41 51.43911 0.03476 2448 ft 191 kts 276°
2026-05-06 09:42 51.43976 0.01399 2179 ft 186 kts 276°
2026-05-06 09:42 51.44039 -0.00622 2010 ft 177 kts 277°
2026-05-06 09:42 51.44100 -0.02587 1991 ft 175 kts 277°
2026-05-06 09:42 51.44160 -0.04525 1979 ft 175 kts 276°
2026-05-06 09:43 51.44220 -0.06479 2002 ft 177 kts 277°
2026-05-06 09:43 51.44285 -0.08439 1997 ft 174 kts 280°
2026-05-06 09:43 51.44769 -0.10101 2001 ft 162 kts 324°
2026-05-06 09:43 51.45762 -0.10809 2005 ft 155 kts 349°
2026-05-06 09:44 51.46813 -0.11216 1997 ft 155 kts 347°
2026-05-06 09:44 51.47872 -0.11632 1994 ft 157 kts 347°
2026-05-06 09:44 51.48903 -0.11894 1965 ft 144 kts 14°
2026-05-06 09:44 51.49660 -0.10958 1992 ft 140 kts 44°
2026-05-06 09:45 51.50272 -0.09866 1993 ft 126 kts 43°
2026-05-06 09:45 51.50822 -0.08792 1973 ft 126 kts 58°
2026-05-06 09:45 51.50865 -0.07352 2034 ft 135 kts 87°
2026-05-06 09:45 51.50888 -0.05850 1987 ft 132 kts 84°
2026-05-06 09:46 51.50840 -0.04375 1950 ft 132 kts 88°
2026-05-06 09:46 51.50789 -0.02922 1752 ft 130 kts 86°
2026-05-06 09:46 51.50744 -0.01485 1429 ft 129 kts 86°
2026-05-06 09:46 51.50711 -0.00522 1206 ft 131 kts 87°
2026-05-06 09:47 51.50660 0.00944 819 ft 131 kts 86°
2026-05-06 09:47 51.50618 0.02422 463 ft 138 kts 87°
2026-05-06 09:47 51.50569 0.04007 125 ft 143 kts 89°
2026-05-06 09:47 51.50523 0.05475 24 ft 96 kts 92°
2026-05-06 09:48 51.50509 0.05967 24 ft 7 kts 92°
2026-05-06 09:48 51.50498 0.06037 27 ft 6 kts 136°
2026-05-06 09:48 51.50468 0.06037 26 ft 4 kts 201°
2026-05-06 09:48 51.50449 0.06012 27 ft 4 kts 225°
2026-05-06 09:49 51.50431 0.05977 27 ft 5 kts 239°
2026-05-06 09:49 51.50426 0.05915 24 ft 6 kts 271°
2026-05-06 09:49 51.50428 0.05835 24 ft 8 kts 272°
2026-05-06 09:49 51.50431 0.05738 24 ft 9 kts 273°
2026-05-06 09:50 51.50435 0.05635 24 ft 9 kts 272°
2026-05-06 09:50 51.50438 0.05534 24 ft 9 kts 273°
2026-05-06 09:50 51.50441 0.05435 24 ft 9 kts 273°
2026-05-06 09:50 51.50444 0.05354 24 ft 6 kts 273°
2026-05-06 09:51 51.50446 0.05286 24 ft 6 kts 272°
2026-05-06 09:51 51.50448 0.05219 26 ft 6 kts 273°
2026-05-06 09:51 51.50450 0.05153 24 ft 6 kts 272°
2026-05-06 09:51 51.50449 0.05102 24 ft 4 kts 252°
2026-05-06 09:52 51.50427 0.05089 27 ft 3 kts 182°
2026-05-06 09:52 51.50413 0.05088 24 ft 1 kts 182°
2026-05-06 09:52 51.50405 0.05084 24 ft 1 kts 212°
2026-05-06 09:52 51.50410 0.05071 24 ft 1 kts 320°
2026-05-06 09:53 51.50413 0.05067 27 ft 0 kts 323°